Regional Weather Roundup
Issued by NWS

Home | Current Version | Previous Version | Text Only | Print | Product List | Glossary Off
Versions: 1 2 3 4 5 6 7 8 9 10 11 12 13 14 15 16 17 18 19 20 21 22 23 24 25 26 27 28 29 30 31 32 33 34 35 36 37 38 39 40 41 42 43 44 45 46 47 48 49 50

000
ASUS43 KIND 261009
RWRIN

WEATHER ROUNDUP FOR INDIANA
NATIONAL WEATHER SERVICE INDIANAPOLIS IN
600 AM EDT MON SEP 26 2016

NOTE: "FAIR" INDICATES FEW OR NO CLOUDS BELOW 12,000 FEET WITH NO
SIGNIFICANT WEATHER AND/OR OBSTRUCTIONS TO VISIBILITY.

* - STATION DOES NOT REPORT WEATHER SUCH AS PRECIPITATION OR FOG.

+ - STATION NOT QUALITY CONTROLLED BY THE NATIONAL WEATHER SERVICE.
    USE DATA WITH CAUTION...ESPECIALLY DEWPOINT AND RELATIVE
    HUMIDITY OBSERVATIONS.

INZ001>003-010>013-019-020-261100-
NORTHWEST INDIANA

CITY           SKY/WX    TMP DP  RH WIND       PRES   REMARKS
GARY /AIRPORT/ CLOUDY    61  59  94 W12       29.98S
KNOX *+        CLOUDY    57  43  58 CALM      29.97F
LA PORTE +     LGT RAIN N/A N/A N/A W5        29.98R
MICHIGAN CITY+ LGT RAIN  59  59 100 MISG      29.97S
MONTICELLO +   RAIN      58  54  86 W5        30.01S
RENSSELAER +   DRIZZLE   59  57  94 SW3       30.02R
VALPARAISO     LGT RAIN  58  56  93 SW8       29.98F

$$

LMZ046-743>745-261100-
SOUTHERN LAKE MICHIGAN

STATION/POSITION TIME  TEMP    WIND        PRES    WAVE
                       AIR SEA DIR/SP/G            HT
                 (UTC) (F)     (DEG/KT/KT) (MB)    (FT)
BURNS HARBOR     0900   61     230/  9/ 13 1015.2R
MICHIGAN CITY    0900   62     240/ 15/ 16   N/A
5NW MICH CITY    1000   63 67  290/ 16/ 21   N/A     4

$$

INZ004-005-014>016-021>024-261100-
NORTH CENTRAL INDIANA

CITY           SKY/WX    TMP DP  RH WIND       PRES   REMARKS
GOSHEN         RAIN      61  56  83 W13       29.96R
LOGANSPORT +   RAIN      57  55  94 W6        30.01F
PERU/GRISSOM   LGT RAIN  63  57  82 W16G25    30.00R
ROCHESTER +    RAIN      61  61 100 W8        30.00R
SOUTH BEND     LGT RAIN  58  58 100 W6        29.95F
WARSAW +       HVY RAIN  61  52  72 W16       29.99R

$$

INZ006>009-017-018-025>027-261100-
NORTHEAST INDIANA

CITY           SKY/WX    TMP DP  RH WIND       PRES   REMARKS
ANGOLA *+        N/A     63  54  72 NW7       29.93R
AUBURN +       HVY RAIN  63  57  82 W8G16     29.95R
FORT WAYNE     LGT RAIN  63  59  87 NW9G22    29.95R
HUNTINGTON +   LGT RAIN  63  61  94 NW8       29.96R
KENDALLVILLE + CLOUDY    62  59  90 NW7       29.95S

$$

INZ028-029-035-036-043>045-051>053-261100-
WEST CENTRAL INDIANA

CITY           SKY/WX    TMP DP  RH WIND       PRES   REMARKS
CRAWFORDSVL +  CLOUDY    57  57 100 NW8       30.04R
GREENCASTLE +  CLOUDY    59  59 100 W3        30.04S
LAFAYETTE      LGT RAIN  58  58 100 NW7       30.02S
TERRE HAUTE    CLOUDY    60  56  86 N5        30.04R

$$

INZ030>032-037>040-046>048-054>057-064-065-261100-
CENTRAL INDIANA

CITY           SKY/WX    TMP DP  RH WIND       PRES   REMARKS
FISHERS *+     CLOUDY    61  59  94 NW10      30.00R
GREENWOOD *+   CLOUDY    64  59  82 NW13G20   30.02R
INDIANAPOLIS   CLOUDY    63  56  78 NW20G25   30.01R
-EAGLE CREEK   CLOUDY    64  57  78 NW16G23   30.01R
MARION +       LGT RAIN  63  58  83 NW15G28   29.99R
MT COMFORT *+  CLOUDY    63  57  82 NW16G23   30.00R
SHELBYVILLE    TSTM      65  60  84 NW17G29   29.99R
ZIONSVILLE +   LGT RAIN  60  56  86 NW12G21   30.01R

$$

INZ033-034-041-042-049-050-058-059-261100-
EAST CENTRAL INDIANA

CITY           SKY/WX    TMP DP  RH WIND       PRES   REMARKS
MUNCIE         LGT RAIN  65  59  81 NW24G38   29.96R

$$

INZ060-061-067>069-081>083-085>088-261100-
SOUTHWEST INDIANA

CITY           SKY/WX    TMP DP  RH WIND       PRES   REMARKS
EVANSVILLE     LGT RAIN  62  57  83 N12G20    30.06R
HUNTINGBURG *+   N/A     64  57  77 NW12G18   30.05R
WASHINGTON +   RAIN      61  61 100 MISG      30.05R

$$

INZ062-063-066-070>080-084-089>092-261100-
SOUTH CENTRAL AND SOUTHEAST INDIANA

CITY           SKY/WX    TMP DP  RH WIND       PRES   REMARKS
BLOOMINGTON    RAIN      62  58  86 VRB6      30.03F
MADISON *+     PTCLDY    68  64  88 W3        29.98R
NORTH VERNON + PTCLDY   N/A N/A N/A W5        29.97R
SEYMOUR +      MOCLDY    72  68  88 W12       29.98R

$$





USA.gov is the U.S. government's official web portal to all federal, state and local government web resources and services.